Regional Weather Roundup
Issued by NWS Mobile, AL

Home | Current Version | Previous Version | Text Only | Print | Product List | Glossary On
Versions: 1 2 3 4 5 6 7 8 9 10 11 12 13 14 15 16 17 18 19 20 21 22 23 24 25 26 27 28 29 30 31 32 33 34 35 36 37 38 39 40 41 42 43 44 45 46 47 48 49 50
000
ASUS44 KMOB 281610
RWRMOB
REGIONAL WEATHER ROUNDUP
NATIONAL WEATHER SERVICE MOBILE AL
1000 AM CST SAT FEB 28 2015

NOTE: "FAIR" INDICATES FEW OR NO CLOUDS BELOW 12,000 FEET WITH NO
      SIGNIFICANT WEATHER AND/OR OBSTRUCTIONS TO VISIBILITY.

  * THESE STATIONS ARE PART OF THE UNIVERSITY OF SOUTH ALABAMA
    MESONET AND ARE NOT UNDER NWS OR FAA QUALITY CONTROL.

ALZ061>064-281700-
COASTAL ALABAMA

CITY           SKY/WX    TMP DP  RH WIND       PRES   REMARKS
MOBILE REG APT MOSUNNY   51  32  48 E14       30.44S
BROOKLEY FIELD SUNNY     49  33  54 N7        30.46S
USA CAMPUS*      N/A     50  32  50 NE10      30.44S
DOG RIVER*     NOT AVBL


CITY           SKY/WX    TMP DP  RH WIND       PRES   REMARKS
MOUNT VERNON*    N/A     50  32  50 N9        30.46F
SARALAND*      NOT AVBL
BAY MINETTE*   NOT AVBL
LOXLEY*          N/A     50  36  57 E8        30.44S
ROBERTSDALE*     N/A     50  34  53 SE7       30.44S
FAIRHOPE*        N/A     52  36  54 E9        30.43S
ELBERTA*         N/A     54  36  50 NE10      30.42S
FOLEY*         NOT AVBL
GRAND BAY*       N/A     52  34  50 NE8       30.42S
DAUPHIN ISLND* NOT AVBL
BON SCOUR NWR* NOT AVBL
GULF SHORES    SUNNY     51  35  53 E13G18    30.43S

$$

ALZ051>060-281700-
INTERIOR SOUTHWEST AND SOUTH CENTRAL ALABAMA

CITY           SKY/WX    TMP DP  RH WIND       PRES   REMARKS
GREENVILLE     SUNNY     51  30  44 E12       30.47S
EVERGREEN      SUNNY     53  31  42 E9        30.47F
CASTLEBERRY*   NOT AVBL
ATMORE*          N/A     50  36  57 E9        30.46S
DIXIE*           N/A     54  37  54 NE3       30.43S
ANDALUSIA/OPP  PTSUNNY   56  36  47 E9        30.47S
ANDALUSIA*       N/A     52  39  62 E15       30.45S
FLORALA APT    CLOUDY    52  37  56 E8        30.47S
FLORALA*         N/A     50  37  62 NE6       30.42F

$$

FLZ001>006-281700-
WESTERN FLORIDA PANHANDLE

CITY           SKY/WX    TMP DP  RH WIND       PRES   REMARKS
PENSACOLA      CLOUDY    51  35  54 NE9       30.43S
NAS PENSACOLA  PTSUNNY   53  37  54 NE15      30.43S
MILTON         PTSUNNY   51  35  54 NE10      30.45S
WHTNG S FIELD  CLOUDY    54  36  50 E10       30.45R


CITY           SKY/WX    TMP DP  RH WIND       PRES   REMARKS
WALNUT HILL*   NOT AVBL
JAY*             N/A     52  34  50 NE7       30.45S
DUKE FIELD     CLOUDY    50  37  59 NE8       30.43S
CRESTVIEW      CLOUDY    53  38  56 E8        30.47R
VALPARAISO     CLOUDY    50  37  61 NE10      30.43S
DESTIN         CLOUDY    51  39  63 NE9       30.44R

$$

MSZ076-079-281700-
INTERIOR SOUTHEAST MISSISSIPPI

CITY           SKY/WX    TMP DP  RH WIND       PRES   REMARKS
LEAKESVILLE*     N/A     50  32  50 E6        30.46S
AGRICOLA*      NOT AVBL

$$

MARINE OBSERVATIONS

STATION/POSITION TIME  TEMP    WIND        PRES    WAVE
                       AIR SEA DIR/SP/G            HT/PER
                 (UTC) (F)     (DEG/KT/KT) (MB)    (FT/S)
PASCAGOULA       1600   51      70/  9/ 12 1030.0F
PETIT BOIS ISLND 1600   48      50/ 17/ 21 1030.4F
GRAND BAY        1500   43      50/ 11     1031.0S
KATRINA CUT      1500   44      60/ 17     1030.8S
CEDAR POINT      1500   42      40/ 15     1030.5R
E DAUPHIN ISLAND 1454   44      30/ 13/ 14 1030.3R
MIDDLE BAY LIGHT 1500   47      30/ 10     1030.1S
USCG MOBILE BAY  1600   45 50   40/  7/ 10 1030.0F
STATE DOCKS      1600   49 46              1030.7R
MEAHER PARK      1500   48      50/  6     1031.2F
WEEKS BAY        1500   46                   N/A
FORT MORGAN      1600   47      60/ 15/ 17 1029.7R
12 S ORANGE BCH  1600   50 62   60/ 17/ 21 1029.2F   5/ 7
PENSACOLA BAY    1600   52 53   60/  7/ 10 1030.7F
64 S DAUPHIN ISL 1453   60 70   70/ 14/ 17 1029.0R   6/ 7
67 S FORT MORGAN 1400   60      90/ 16     1027.8R

$$

SELECTED LOCATIONS ACROSS THE REGION

CITY           SKY/WX    TMP DP  RH WIND       PRES   REMARKS
NEW ORLEANS    PTSUNNY   51  35  54 E12       30.40F
GULFPORT       SUNNY     52  33  48 NE10      30.42F
PASCAGOULA AP  SUNNY     52  34  50 NE12      30.43F
PASCAGOULA*    NOT AVBL
HATTIESBURG    SUNNY     48  30  49 E6        30.46F
LAUREL         SUNNY     46  28  49 E8        30.46F
MERIDIAN       MOSUNNY   49  29  46 SE8       30.49S
JACKSON        PTSUNNY   48  23  37 N3        30.45S
MONTGOMERY     MOSUNNY   51  32  48 E10       30.52S
TROY           MOSUNNY   51  31  46 E13G18    30.50S
KINSTON*       NOT AVBL
GENEVA*          N/A     48  37  66 E9        30.49S
ASHFORD*         N/A     52  39  62 E15       30.45S
DOTHAN         CLOUDY    51  39  63 E12       30.50S
PANAMA CITY    CLOUDY    49  41  74 N8        30.43S

$$



USA.gov is the U.S. government's official web portal to all federal, state and local government web resources and services.